Time,TemperatureF,DewpointF,PressureIn,WindDirection,WindDirectionDegrees,WindSpeedMPH,WindSpeedGustMPH,Humidity,HourlyPrecipIn,Conditions,Clouds,dailyrainin,SoftwareType,DateUTC
2013-03-19 00:05:00,46.8,38.6,30.03,NNE,13,0.0,3.0,73,0.00,,,0.00,Wunderground v.1.15,2013-03-19 07:05:00,
2013-03-19 00:35:00,47.0,38.8,30.02,ENE,68,0.0,3.0,73,0.00,,,0.00,Wunderground v.1.15,2013-03-19 07:35:00,
2013-03-19 01:05:00,47.1,38.2,30.02,NE,51,0.0,1.0,71,0.00,,,0.00,Wunderground v.1.15,2013-03-19 08:05:00,
2013-03-19 01:35:00,47.1,38.5,30.01,ENE,65,0.0,2.0,72,0.00,,,0.00,Wunderground v.1.15,2013-03-19 08:35:00,
2013-03-19 02:05:00,47.0,38.8,30.00,ENE,64,0.0,1.0,73,0.00,,,0.00,Wunderground v.1.15,2013-03-19 09:05:00,
2013-03-19 02:35:00,46.5,38.3,30.00,NE,42,0.0,2.0,73,0.00,,,0.00,Wunderground v.1.15,2013-03-19 09:35:00,
2013-03-19 03:05:00,45.7,39.6,30.00,East,83,0.0,0.0,79,0.00,,,0.00,Wunderground v.1.15,2013-03-19 10:05:00,
2013-03-19 03:35:00,45.2,40.0,30.00,East,89,0.0,0.0,82,0.00,,,0.00,Wunderground v.1.15,2013-03-19 10:35:00,
2013-03-19 04:05:00,45.1,40.2,29.99,NE,45,0.0,1.0,83,0.00,,,0.00,Wunderground v.1.15,2013-03-19 11:05:00,
2013-03-19 04:35:00,46.0,39.2,29.98,ENE,69,0.0,2.0,77,0.00,,,0.00,Wunderground v.1.15,2013-03-19 11:35:00,
2013-03-19 05:05:00,46.1,39.3,29.97,ENE,64,0.0,5.0,77,0.00,,,0.00,Wunderground v.1.15,2013-03-19 12:05:00,
2013-03-19 05:35:00,46.0,39.2,29.97,ENE,58,1.0,1.0,77,0.00,,,0.00,Wunderground v.1.15,2013-03-19 12:35:00,
2013-03-19 06:05:00,45.8,39.3,29.97,NE,49,0.0,4.0,78,0.00,,,0.00,Wunderground v.1.15,2013-03-19 13:05:00,
2013-03-19 06:35:00,45.7,39.9,29.97,ENE,69,0.0,1.0,80,0.00,,,0.00,Wunderground v.1.15,2013-03-19 13:35:00,
2013-03-19 07:05:00,45.5,40.3,29.97,ESE,106,0.0,2.0,82,0.00,,,0.00,Wunderground v.1.15,2013-03-19 14:05:00,
2013-03-19 07:35:00,45.2,41.0,29.96,SSE,157,1.0,1.0,85,0.00,,,0.00,Wunderground v.1.15,2013-03-19 14:35:00,
2013-03-19 08:05:00,45.4,41.5,29.96,NE,48,1.0,6.0,86,0.00,,,0.00,Wunderground v.1.15,2013-03-19 15:05:00,
2013-03-19 08:35:00,45.7,42.9,29.96,ENE,73,0.0,3.0,90,0.00,,,0.00,Wunderground v.1.15,2013-03-19 15:35:00,
2013-03-19 09:05:00,46.1,43.6,29.95,East,80,0.0,3.0,91,0.00,,,0.00,Wunderground v.1.15,2013-03-19 16:05:00,
2013-03-19 09:35:00,46.2,43.4,29.94,ENE,73,1.0,5.0,90,0.00,,,0.00,Wunderground v.1.15,2013-03-19 16:35:00,
2013-03-19 10:05:00,46.8,44.3,29.94,East,83,0.0,3.0,91,0.00,,,0.00,Wunderground v.1.15,2013-03-19 17:05:00,
2013-03-19 10:35:00,48.5,45.7,29.93,ENE,65,0.0,2.0,90,0.00,,,0.00,Wunderground v.1.15,2013-03-19 17:35:00,
2013-03-19 11:05:00,49.2,45.8,29.93,NE,56,0.0,3.0,88,0.00,,,0.00,Wunderground v.1.15,2013-03-19 18:05:00,
2013-03-19 11:35:00,49.8,46.7,29.93,NE,54,0.0,2.0,89,0.00,,,0.00,Wunderground v.1.15,2013-03-19 18:35:00,
2013-03-19 12:05:00,50.1,47.0,29.91,ESE,107,0.0,2.0,89,0.00,,,0.00,Wunderground v.1.15,2013-03-19 19:05:00,
2013-03-19 12:35:00,50.8,47.7,29.90,ENE,69,0.0,0.0,89,0.00,,,0.00,Wunderground v.1.15,2013-03-19 19:35:00,
2013-03-19 13:05:00,52.0,48.6,29.89,ENE,69,0.0,1.0,88,0.00,,,0.00,Wunderground v.1.15,2013-03-19 20:05:00,
2013-03-19 13:35:00,53.3,48.9,29.88,NE,52,0.0,1.0,85,0.00,,,0.00,Wunderground v.1.15,2013-03-19 20:35:00,
2013-03-19 14:05:00,54.8,50.1,29.87,NE,52,0.0,0.0,84,0.00,,,0.00,Wunderground v.1.15,2013-03-19 21:05:00,
2013-03-19 14:35:00,55.1,47.0,29.87,West,265,0.0,1.0,74,0.00,,,0.00,Wunderground v.1.15,2013-03-19 21:35:00,
2013-03-19 15:05:00,53.9,44.3,29.86,West,261,0.0,2.0,70,0.00,,,0.00,Wunderground v.1.15,2013-03-19 22:05:00,
2013-03-19 15:35:00,51.1,48.9,29.85,NE,37,0.0,1.0,92,0.06,,,0.02,Wunderground v.1.15,2013-03-19 22:35:00,
2013-03-19 16:05:00,49.1,47.2,29.84,ESE,112,0.0,2.0,93,0.00,,,0.02,Wunderground v.1.15,2013-03-19 23:05:00,
2013-03-19 16:35:00,49.4,48.6,29.82,West,268,0.0,1.0,97,0.00,,,0.02,Wunderground v.1.15,2013-03-19 23:35:00,
2013-03-19 17:05:00,49.2,48.9,29.78,ESE,114,0.0,4.0,99,0.00,,,0.03,Wunderground v.1.15,2013-03-20 00:05:00,
2013-03-19 17:35:00,49.1,49.1,29.77,NE,56,0.0,0.0,100,0.00,,,0.05,Wunderground v.1.15,2013-03-20 00:35:00,
2013-03-19 18:05:00,48.9,48.9,29.76,NE,56,0.0,0.0,100,0.10,,,0.10,Wunderground v.1.15,2013-03-20 01:05:00,
2013-03-19 18:35:00,48.6,48.6,29.73,NE,56,0.0,0.0,100,0.11,,,0.14,Wunderground v.1.15,2013-03-20 01:35:00,
2013-03-19 19:05:00,48.9,48.9,29.70,NE,56,0.0,1.0,100,0.00,,,0.15,Wunderground v.1.15,2013-03-20 02:05:00,
2013-03-19 19:35:00,48.8,48.8,29.69,NE,56,0.0,0.0,100,0.16,,,0.19,Wunderground v.1.15,2013-03-20 02:35:00,
2013-03-19 20:05:00,49.4,49.4,29.68,NE,56,0.0,0.0,100,0.26,,,0.30,Wunderground v.1.15,2013-03-20 03:05:00,
2013-03-19 20:35:00,50.4,50.4,29.67,SE,131,0.0,3.0,100,0.04,,,0.37,Wunderground v.1.15,2013-03-20 03:35:00,
2013-03-19 21:05:00,51.0,51.0,29.67,ENE,68,0.0,1.0,100,0.05,,,0.39,Wunderground v.1.15,2013-03-20 04:05:00,
2013-03-19 21:35:00,51.1,51.1,29.65,SSE,147,0.0,2.0,100,0.00,,,0.39,Wunderground v.1.15,2013-03-20 04:35:00,
2013-03-19 22:05:00,51.3,51.3,29.65,ESE,117,0.0,0.0,100,0.19,,,0.49,Wunderground v.1.15,2013-03-20 05:05:00,
2013-03-19 22:35:00,51.3,51.3,29.64,SE,134,0.0,1.0,100,0.22,,,0.57,Wunderground v.1.15,2013-03-20 05:35:00,
2013-03-19 23:05:00,51.3,51.3,29.64,NE,40,0.0,1.0,100,0.12,,,0.65,Wunderground v.1.15,2013-03-20 06:05:00,
2013-03-19 23:35:00,51.6,51.6,29.64,SSE,161,0.0,2.0,100,0.00,,,0.66,Wunderground v.1.15,2013-03-20 06:35:00,